Time,TemperatureF,DewpointF,PressureIn,WindDirection,WindDirectionDegrees,WindSpeedMPH,WindSpeedGustMPH,Humidity,HourlyPrecipIn,Conditions,Clouds,dailyrainin,SoftwareType,DateUTC
2013-05-12 00:03:00,-999.0,-99.9,29.75,NNE,16,1.0,2.0,-999,-99.99,,,-99.99,,2013-05-12 04:03:00,
2013-05-12 00:12:00,64.0,-99.9,29.75,NNE,21,1.0,2.0,-999,-99.99,,,-99.99,,2013-05-12 04:12:00,
2013-05-12 00:23:00,64.0,-99.9,29.73,NNE,29,2.0,2.0,-999,-99.99,,,-99.99,,2013-05-12 04:23:00,
2013-05-12 00:33:00,64.0,-99.9,29.73,SSE,153,2.0,3.0,-999,-99.99,,,-99.99,,2013-05-12 04:33:00,
2013-05-12 00:43:00,64.0,-99.9,29.73,SSE,150,2.0,2.0,-999,-99.99,,,-99.99,,2013-05-12 04:43:00,
2013-05-12 00:52:00,64.0,-99.9,29.72,North,-999,-999.0,-999.0,-999,-99.99,,,-99.99,,2013-05-12 04:52:00,
2013-05-12 01:02:00,64.0,-99.9,29.72,South,185,2.0,2.0,-999,-99.99,,,-99.99,,2013-05-12 05:02:00,
2013-05-12 01:12:00,64.0,-99.9,29.72,South,176,4.0,5.0,-999,-99.99,,,-99.99,,2013-05-12 05:12:00,
2013-05-12 01:22:00,64.0,-99.9,29.71,SSE,167,4.0,4.0,-999,-99.99,,,-99.99,,2013-05-12 05:22:00,
2013-05-12 01:32:00,64.0,-99.9,29.72,SSW,194,3.0,5.0,-999,-99.99,,,-99.99,,2013-05-12 05:32:00,
2013-05-12 01:42:00,64.0,-99.9,29.71,SSW,195,4.0,5.0,-999,-99.99,,,-99.99,,2013-05-12 05:42:00,
2013-05-12 01:52:00,64.0,-99.9,29.70,WNW,289,3.0,4.0,-999,-99.99,,,-99.99,,2013-05-12 05:52:00,
2013-05-12 02:02:00,63.0,-99.9,29.71,WSW,254,6.0,7.0,-999,-99.99,,,-99.99,,2013-05-12 06:02:00,
2013-05-12 02:11:00,64.0,-99.9,29.71,WSW,255,8.0,11.0,-999,-99.99,,,-99.99,,2013-05-12 06:11:00,
2013-05-12 02:22:00,64.0,-99.9,29.72,WSW,255,9.0,11.0,-999,-99.99,,,-99.99,,2013-05-12 06:22:00,
2013-05-12 02:32:00,64.0,-99.9,29.72,WSW,237,4.0,6.0,-999,-99.99,,,-99.99,,2013-05-12 06:32:00,
2013-05-12 02:42:00,63.0,-99.9,29.72,WSW,249,5.0,6.0,-999,-99.99,,,-99.99,,2013-05-12 06:42:00,
2013-05-12 02:52:00,64.0,-99.9,29.71,WSW,252,4.0,5.0,-999,-99.99,,,-99.99,,2013-05-12 06:52:00,
2013-05-12 03:02:00,64.0,-99.9,29.71,West,261,5.0,6.0,-999,-99.99,,,-99.99,,2013-05-12 07:02:00,
2013-05-12 03:11:00,63.0,-99.9,29.71,West,260,7.0,9.0,-999,-99.99,,,-99.99,,2013-05-12 07:11:00,
2013-05-12 03:22:00,64.0,-99.9,29.71,West,276,5.0,8.0,-999,-99.99,,,-99.99,,2013-05-12 07:22:00,
2013-05-12 03:32:00,63.0,-99.9,29.70,WNW,288,7.0,8.0,-999,-99.99,,,-99.99,,2013-05-12 07:32:00,
2013-05-12 03:42:00,63.0,-99.9,29.70,WNW,292,9.0,11.0,-999,-99.99,,,-99.99,,2013-05-12 07:42:00,
2013-05-12 03:52:00,63.0,-99.9,29.70,WNW,289,9.0,10.0,-999,-99.99,,,-99.99,,2013-05-12 07:52:00,
2013-05-12 04:02:00,62.0,-99.9,29.71,WNW,290,9.0,10.0,-999,-99.99,,,-99.99,,2013-05-12 08:02:00,
2013-05-12 04:11:00,62.0,-99.9,29.70,WNW,292,8.0,10.0,-999,-99.99,,,-99.99,,2013-05-12 08:11:00,
2013-05-12 04:22:00,62.0,-99.9,29.71,West,281,6.0,8.0,-999,-99.99,,,-99.99,,2013-05-12 08:22:00,
2013-05-12 04:32:00,62.0,-99.9,29.72,WNW,287,7.0,10.0,-999,-99.99,,,-99.99,,2013-05-12 08:32:00,
2013-05-12 04:42:00,62.0,-99.9,29.71,WNW,295,7.0,8.0,-999,-99.99,,,-99.99,,2013-05-12 08:42:00,
2013-05-12 04:53:00,62.0,-99.9,29.72,WNW,291,9.0,10.0,-999,-99.99,,,-99.99,,2013-05-12 08:53:00,
2013-05-12 05:01:00,62.0,-99.9,29.73,WNW,292,7.0,8.0,-999,-99.99,,,-99.99,,2013-05-12 09:01:00,
2013-05-12 05:11:00,62.0,-99.9,29.73,WNW,298,9.0,10.0,-999,-99.99,,,-99.99,,2013-05-12 09:11:00,
2013-05-12 05:22:00,62.0,-99.9,29.73,NW,305,8.0,9.0,-999,-99.99,,,-99.99,,2013-05-12 09:22:00,
2013-05-12 05:33:00,63.0,-99.9,29.73,NNW,332,7.0,9.0,-999,-99.99,,,-99.99,,2013-05-12 09:33:00,
2013-05-12 05:43:00,63.0,-99.9,29.72,NNW,342,7.0,7.0,-999,-99.99,,,-99.99,,2013-05-12 09:43:00,
2013-05-12 05:53:00,61.0,-99.9,29.72,NNE,13,8.0,9.0,-999,-99.99,,,-99.99,,2013-05-12 09:53:00,
2013-05-12 06:03:00,61.0,-99.9,29.72,North,9,6.0,7.0,-999,-99.99,,,-99.99,,2013-05-12 10:03:00,
2013-05-12 06:12:00,61.0,-99.9,29.73,NNW,329,5.0,6.0,-999,-99.99,,,-99.99,,2013-05-12 10:12:00,
2013-05-12 06:23:00,61.0,-99.9,29.74,NNW,332,5.0,6.0,-999,-99.99,,,-99.99,,2013-05-12 10:23:00,
2013-05-12 06:33:00,61.0,-99.9,29.75,NW,323,6.0,7.0,-999,-99.99,,,-99.99,,2013-05-12 10:33:00,
2013-05-12 06:42:00,61.0,-99.9,29.75,NW,316,6.0,6.0,-999,-99.99,,,-99.99,,2013-05-12 10:42:00,
2013-05-12 06:52:00,61.0,-99.9,29.75,NNW,334,6.0,7.0,-999,-99.99,,,-99.99,,2013-05-12 10:52:00,
2013-05-12 07:03:00,62.0,-99.9,29.75,NNW,338,5.0,7.0,-999,-99.99,,,-99.99,,2013-05-12 11:03:00,
2013-05-12 07:12:00,62.0,-99.9,29.75,NNW,327,4.0,6.0,-999,-99.99,,,-99.99,,2013-05-12 11:12:00,
2013-05-12 07:22:00,62.0,-99.9,29.74,NW,326,4.0,4.0,-999,-99.99,,,-99.99,,2013-05-12 11:22:00,
2013-05-12 07:32:00,62.0,-99.9,29.74,NNW,328,3.0,4.0,-999,-99.99,,,-99.99,,2013-05-12 11:32:00,
2013-05-12 07:42:00,61.0,-99.9,29.73,NNW,330,4.0,4.0,-999,-99.99,,,-99.99,,2013-05-12 11:42:00,
2013-05-12 07:52:00,62.0,-99.9,29.74,NNW,332,8.0,14.0,-999,-99.99,,,-99.99,,2013-05-12 11:52:00,
2013-05-12 08:02:00,62.0,-99.9,29.75,NW,319,16.0,19.0,-999,-99.99,,,-99.99,,2013-05-12 12:02:00,
2013-05-12 08:11:00,62.0,-99.9,29.75,NW,321,14.0,15.0,-999,-99.99,,,-99.99,,2013-05-12 12:11:00,
2013-05-12 08:22:00,62.0,-99.9,29.75,NW,322,13.0,14.0,-999,-99.99,,,-99.99,,2013-05-12 12:22:00,
2013-05-12 08:32:00,62.0,-99.9,29.76,NW,323,14.0,16.0,-999,-99.99,,,-99.99,,2013-05-12 12:32:00,
2013-05-12 08:42:00,61.0,-99.9,29.76,NNW,333,11.0,13.0,-999,-99.99,,,-99.99,,2013-05-12 12:42:00,
2013-05-12 08:52:00,61.0,-99.9,29.76,NNW,338,9.0,11.0,-999,-99.99,,,-99.99,,2013-05-12 12:52:00,
2013-05-12 09:02:00,61.0,-99.9,29.76,NNW,342,7.0,8.0,-999,-99.99,,,-99.99,,2013-05-12 13:02:00,
2013-05-12 09:11:00,61.0,-99.9,29.76,NNW,345,6.0,7.0,-999,-99.99,,,-99.99,,2013-05-12 13:11:00,
2013-05-12 09:21:00,61.0,-99.9,29.77,North,349,5.0,7.0,-999,-99.99,,,-99.99,,2013-05-12 13:21:00,
2013-05-12 09:32:00,61.0,-99.9,29.76,North,356,6.0,7.0,-999,-99.99,,,-99.99,,2013-05-12 13:32:00,
2013-05-12 09:42:00,60.0,-99.9,29.77,NNW,344,9.0,10.0,-999,-99.99,,,-99.99,,2013-05-12 13:42:00,
2013-05-12 09:52:00,60.0,-99.9,29.77,North,-999,8.0,9.0,-999,-99.99,,,-99.99,,2013-05-12 13:52:00,
2013-05-12 10:02:00,60.0,-99.9,29.77,NNW,343,8.0,9.0,-999,-99.99,,,-99.99,,2013-05-12 14:02:00,
2013-05-12 10:11:00,61.0,-99.9,29.78,NW,322,6.0,8.0,-999,-99.99,,,-99.99,,2013-05-12 14:11:00,
2013-05-12 10:22:00,60.0,-99.9,29.77,NNW,337,3.0,4.0,-999,-99.99,,,-99.99,,2013-05-12 14:22:00,
2013-05-12 10:32:00,61.0,-99.9,29.78,WNW,296,8.0,11.0,-999,-99.99,,,-99.99,,2013-05-12 14:32:00,
2013-05-12 10:42:00,61.0,-99.9,29.78,WNW,295,11.0,12.0,-999,-99.99,,,-99.99,,2013-05-12 14:42:00,
2013-05-12 10:52:00,61.0,-99.9,29.77,WNW,303,12.0,13.0,-999,-99.99,,,-99.99,,2013-05-12 14:52:00,
2013-05-12 11:01:00,61.0,-99.9,29.78,NW,307,13.0,14.0,-999,-99.99,,,-99.99,,2013-05-12 15:01:00,
2013-05-12 11:11:00,61.0,-99.9,29.78,NW,308,10.0,14.0,-999,-99.99,,,-99.99,,2013-05-12 15:11:00,
2013-05-12 11:21:00,62.0,-99.9,29.78,NW,315,13.0,15.0,-999,-99.99,,,-99.99,,2013-05-12 15:21:00,
2013-05-12 11:34:00,62.0,-99.9,29.78,NW,317,13.0,15.0,-999,-99.99,,,-99.99,,2013-05-12 15:34:00,
2013-05-12 11:42:00,62.0,-99.9,29.78,NW,315,11.0,12.0,-999,-99.99,,,-99.99,,2013-05-12 15:42:00,
2013-05-12 11:53:00,62.0,-99.9,29.78,NW,322,9.0,11.0,-999,-99.99,,,-99.99,,2013-05-12 15:53:00,
2013-05-12 12:02:00,63.0,-99.9,29.78,NW,320,12.0,14.0,-999,-99.99,,,-99.99,,2013-05-12 16:02:00,
2013-05-12 12:13:00,63.0,-99.9,29.78,NW,313,18.0,21.0,-999,-99.99,,,-99.99,,2013-05-12 16:13:00,
2013-05-12 12:23:00,62.0,-99.9,29.78,NW,315,15.0,17.0,-999,-99.99,,,-99.99,,2013-05-12 16:23:00,
2013-05-12 12:33:00,63.0,-99.9,29.78,WNW,302,21.0,26.0,-999,-99.99,,,-99.99,,2013-05-12 16:33:00,
2013-05-12 12:42:00,63.0,-99.9,29.78,NW,305,20.0,24.0,-999,-99.99,,,-99.99,,2013-05-12 16:42:00,
2013-05-12 12:53:00,64.0,-99.9,29.78,NW,320,11.0,19.0,-999,-99.99,,,-99.99,,2013-05-12 16:53:00,
2013-05-12 13:02:00,63.0,-99.9,29.77,NW,311,19.0,23.0,-999,-99.99,,,-99.99,,2013-05-12 17:02:00,
2013-05-12 13:12:00,64.0,-99.9,29.77,WNW,299,19.0,23.0,-999,-99.99,,,-99.99,,2013-05-12 17:12:00,
2013-05-12 13:22:00,63.0,-99.9,29.77,NW,309,22.0,24.0,-999,-99.99,,,-99.99,,2013-05-12 17:22:00,
2013-05-12 13:32:00,64.0,-99.9,29.78,WNW,298,22.0,26.0,-999,-99.99,,,-99.99,,2013-05-12 17:32:00,
2013-05-12 13:42:00,64.0,-99.9,29.78,NW,304,20.0,23.0,-999,-99.99,,,-99.99,,2013-05-12 17:42:00,
2013-05-12 13:53:00,63.0,-99.9,29.78,NW,316,25.0,29.0,-999,-99.99,,,-99.99,,2013-05-12 17:53:00,
2013-05-12 14:01:00,63.0,-99.9,29.78,NW,309,18.0,23.0,-999,-99.99,,,-99.99,,2013-05-12 18:01:00,
2013-05-12 14:12:00,63.0,-99.9,29.78,NW,314,21.0,23.0,-999,-99.99,,,-99.99,,2013-05-12 18:12:00,
2013-05-12 14:22:00,63.0,-99.9,29.78,NW,314,19.0,23.0,-999,-99.99,,,-99.99,,2013-05-12 18:22:00,
2013-05-12 14:32:00,63.0,-99.9,29.78,WNW,303,25.0,29.0,-999,-99.99,,,-99.99,,2013-05-12 18:32:00,
2013-05-12 14:42:00,63.0,-99.9,29.78,NW,308,21.0,27.0,-999,-99.99,,,-99.99,,2013-05-12 18:42:00,
2013-05-12 14:52:00,63.0,-99.9,29.78,WNW,293,24.0,28.0,-999,-99.99,,,-99.99,,2013-05-12 18:52:00,
2013-05-12 15:01:00,63.0,-99.9,29.79,WNW,289,18.0,24.0,-999,-99.99,,,-99.99,,2013-05-12 19:01:00,
2013-05-12 15:11:00,64.0,-99.9,29.79,WNW,286,20.0,24.0,-999,-99.99,,,-99.99,,2013-05-12 19:11:00,
2013-05-12 15:22:00,63.0,-99.9,29.79,WNW,295,25.0,28.0,-999,-99.99,,,-99.99,,2013-05-12 19:22:00,
2013-05-12 15:32:00,63.0,-99.9,29.79,WNW,296,23.0,27.0,-999,-99.99,,,-99.99,,2013-05-12 19:32:00,
2013-05-12 15:42:00,63.0,-99.9,29.79,WNW,288,23.0,26.0,-999,-99.99,,,-99.99,,2013-05-12 19:42:00,
2013-05-12 15:52:00,62.0,-99.9,29.79,WNW,302,23.0,27.0,-999,-99.99,,,-99.99,,2013-05-12 19:52:00,
2013-05-12 16:02:00,62.0,-99.9,29.79,WNW,301,23.0,29.0,-999,-99.99,,,-99.99,,2013-05-12 20:02:00,
2013-05-12 16:11:00,62.0,-99.9,29.79,WNW,302,26.0,28.0,-999,-99.99,,,-99.99,,2013-05-12 20:11:00,
2013-05-12 16:22:00,62.0,-99.9,29.80,NW,311,27.0,33.0,-999,-99.99,,,-99.99,,2013-05-12 20:22:00,
2013-05-12 16:32:00,62.0,-99.9,29.80,NW,307,30.0,36.0,-999,-99.99,,,-99.99,,2013-05-12 20:32:00,
2013-05-12 16:42:00,62.0,-99.9,29.80,NW,305,32.0,38.0,-999,-99.99,,,-99.99,,2013-05-12 20:42:00,
2013-05-12 16:52:00,62.0,-99.9,29.81,WNW,297,26.0,32.0,-999,-99.99,,,-99.99,,2013-05-12 20:52:00,
2013-05-12 17:01:00,62.0,-99.9,29.81,WNW,290,27.0,33.0,-999,-99.99,,,-99.99,,2013-05-12 21:01:00,
2013-05-12 17:11:00,62.0,-99.9,29.82,WNW,288,24.0,30.0,-999,-99.99,,,-99.99,,2013-05-12 21:11:00,
2013-05-12 17:22:00,62.0,-99.9,29.83,NW,305,25.0,32.0,-999,-99.99,,,-99.99,,2013-05-12 21:22:00,
2013-05-12 17:33:00,62.0,-99.9,29.83,WNW,295,28.0,34.0,-999,-99.99,,,-99.99,,2013-05-12 21:33:00,
2013-05-12 17:43:00,62.0,-99.9,29.83,NW,306,29.0,33.0,-999,-99.99,,,-99.99,,2013-05-12 21:43:00,
2013-05-12 17:53:00,62.0,-99.9,29.83,NW,306,29.0,33.0,-999,-99.99,,,-99.99,,2013-05-12 21:53:00,
2013-05-12 18:03:00,62.0,-99.9,29.83,WNW,298,26.0,30.0,-999,-99.99,,,-99.99,,2013-05-12 22:03:00,
2013-05-12 18:23:00,62.0,-99.9,29.84,WNW,299,23.0,27.0,-999,-99.99,,,-99.99,,2013-05-12 22:23:00,
2013-05-12 18:33:00,62.0,-99.9,29.85,NW,308,23.0,26.0,-999,-99.99,,,-99.99,,2013-05-12 22:33:00,
2013-05-12 18:42:00,62.0,-99.9,29.84,NW,312,24.0,30.0,-999,-99.99,,,-99.99,,2013-05-12 22:42:00,
2013-05-12 18:52:00,62.0,-99.9,29.85,WNW,303,23.0,27.0,-999,-99.99,,,-99.99,,2013-05-12 22:52:00,
2013-05-12 19:02:00,62.0,-99.9,29.85,WNW,299,23.0,28.0,-999,-99.99,,,-99.99,,2013-05-12 23:02:00,
2013-05-12 19:12:00,62.0,-99.9,29.85,NW,304,20.0,27.0,-999,-99.99,,,-99.99,,2013-05-12 23:12:00,
2013-05-12 19:22:00,62.0,-99.9,29.86,NW,316,19.0,26.0,-999,-99.99,,,-99.99,,2013-05-12 23:22:00,
2013-05-12 19:32:00,62.0,-99.9,29.86,NW,324,19.0,23.0,-999,-99.99,,,-99.99,,2013-05-12 23:32:00,
2013-05-12 19:42:00,62.0,-99.9,29.87,NW,320,19.0,24.0,-999,-99.99,,,-99.99,,2013-05-12 23:42:00,
2013-05-12 19:52:00,62.0,-99.9,29.87,NW,319,22.0,26.0,-999,-99.99,,,-99.99,,2013-05-12 23:52:00,
2013-05-12 20:01:00,62.0,-99.9,29.87,NW,324,24.0,29.0,-999,-99.99,,,-99.99,,2013-05-13 00:01:00,
2013-05-12 20:11:00,62.0,-99.9,29.87,NW,320,24.0,29.0,-999,-99.99,,,-99.99,,2013-05-13 00:11:00,
2013-05-12 20:22:00,62.0,-99.9,29.88,NW,317,19.0,23.0,-999,-99.99,,,-99.99,,2013-05-13 00:22:00,
2013-05-12 20:32:00,61.0,-99.9,29.89,NNW,331,22.0,28.0,-999,-99.99,,,-99.99,,2013-05-13 00:32:00,
2013-05-12 20:42:00,61.0,-99.9,29.89,NW,325,23.0,28.0,-999,-99.99,,,-99.99,,2013-05-13 00:42:00,
2013-05-12 20:52:00,61.0,-99.9,29.89,NNW,327,21.0,26.0,-999,-99.99,,,-99.99,,2013-05-13 00:52:00,
2013-05-12 21:01:00,61.0,-99.9,29.90,NW,323,23.0,26.0,-999,-99.99,,,-99.99,,2013-05-13 01:01:00,
2013-05-12 21:11:00,61.0,-99.9,29.91,NW,326,21.0,25.0,-999,-99.99,,,-99.99,,2013-05-13 01:11:00,
2013-05-12 21:22:00,60.0,-99.9,29.92,NW,316,21.0,24.0,-999,-99.99,,,-99.99,,2013-05-13 01:22:00,
2013-05-12 21:32:00,60.0,-99.9,29.92,NW,317,18.0,21.0,-999,-99.99,,,-99.99,,2013-05-13 01:32:00,
2013-05-12 21:42:00,60.0,-99.9,29.93,NW,312,18.0,22.0,-999,-99.99,,,-99.99,,2013-05-13 01:42:00,
2013-05-12 21:52:00,60.0,-99.9,29.93,NW,306,18.0,24.0,-999,-99.99,,,-99.99,,2013-05-13 01:52:00,
2013-05-12 22:02:00,59.0,-99.9,29.94,NW,308,16.0,18.0,-999,-99.99,,,-99.99,,2013-05-13 02:02:00,
2013-05-12 22:11:00,59.0,-99.9,29.94,WNW,303,15.0,18.0,-999,-99.99,,,-99.99,,2013-05-13 02:11:00,
2013-05-12 22:21:00,59.0,-99.9,29.95,WNW,303,14.0,16.0,-999,-99.99,,,-99.99,,2013-05-13 02:21:00,
2013-05-12 22:32:00,59.0,-99.9,29.96,NW,306,14.0,17.0,-999,-99.99,,,-99.99,,2013-05-13 02:32:00,
2013-05-12 22:42:00,58.0,-99.9,29.96,WNW,286,11.0,13.0,-999,-99.99,,,-99.99,,2013-05-13 02:42:00,
2013-05-12 22:52:00,57.0,-99.9,29.96,WNW,291,12.0,14.0,-999,-99.99,,,-99.99,,2013-05-13 02:52:00,
2013-05-12 23:02:00,57.0,-99.9,29.96,WNW,289,12.0,15.0,-999,-99.99,,,-99.99,,2013-05-13 03:02:00,
2013-05-12 23:11:00,57.0,-99.9,29.96,WNW,297,11.0,13.0,-999,-99.99,,,-99.99,,2013-05-13 03:11:00,
2013-05-12 23:22:00,57.0,-99.9,29.96,WNW,302,12.0,15.0,-999,-99.99,,,-99.99,,2013-05-13 03:22:00,
2013-05-12 23:33:00,57.0,-99.9,29.97,WNW,298,12.0,14.0,-999,-99.99,,,-99.99,,2013-05-13 03:33:00,
2013-05-12 23:42:00,57.0,-99.9,29.97,NW,309,15.0,18.0,-999,-99.99,,,-99.99,,2013-05-13 03:42:00,
2013-05-12 23:53:00,57.0,-99.9,29.97,WNW,296,12.0,17.0,-999,-99.99,,,-99.99,,2013-05-13 03:53:00,